ARIANE 5 R/B, 29165

Orbit data source: Space-Track

ARIANE 5 R/B, 29165 is space debris in HEO originally from a launch on Sat, 27 May 2006 UTC launched from the French Guiana (FRGUI). Debris objects in space refer to the collection of defunct objects orbiting the Earth. Examples of debris include non-operational satellites, rocket bodies, and fragments generated from explosions, collisions, or faulty payload assembly.

Loading next visibility...
ARIANE 5 R/B details
Identifier
29165, 2006-020D
Orbit
HEO
Last TLE update13 hours ago
Origin
Flag of FRArianespace (FR)
ManufacturerEADS/LV
MissionSpacecraft
Bus & MotorESC-A, Unknown motor
Mass~5,000 kg wet, ~5,000 kg dry
Launch date (UTC)
2006-05-27 (19 years ago)
Launch vehicleUnknown
Launch site
French Guiana (FRGUI)
Object type
Payload
Rocket body
Debris
Shape & HBRCyl + 1 Nozzle, 7 m
Radar Cross Section41.627 m², Large (>1 m²)

Expand to show TLE details & history

TLE from 13 hours ago
0 ARIANE 5 R/B
1 29165U 06020D   25035.73168349  .00000092  00000-0  13766-3 0  9994
2 29165   6.7851 241.1975 5495439 353.8782   1.4998  4.56573506222565
Epoch: 2025-02-04T17:33Z
Definitive object data (Epoch: 2025-02-04T17:33:37.453Z)
Latitude-0.00002°
Longitude-157.34145°
Altitude554.17 km
Speed9.435 km/s
True Right ascension16h 04m 47s
True Declination0° 00' 00"
Sunlit
Object was in daylight at TLE epoch
Visualization TLE readout
Latitude0.14746°
Longitude20.89844°
Altitude17,331.511 km
Speed2.767 km/s
Apparent Right ascension03h 10m 11s
Apparent Declination-9° 57' 49"
Sunlit
Object is in daylight
Visualization observer readout
Local Sidereal Time08:52:37
Azimuth259.552° W
Elevation-3.049°
Doppler factor1
Orbital elements
Apogee altitude17,412.269 km
Perigee altitude537.791 km
Semi-major axis15,353.167 km
Eccentricity0.5495439
Inclination6.7851°
RAAN241.1975°
Arg. of periapsis353.8782°
True anomaly6.16682°
Mean anomaly1.4998°
Eccentric anomaly3.32723°
Mean motion1.1409 °/min
BSTAR0.00013766
Orbital period315.54 mins
Loading maneuver chart data...
Loading historical data...
Loading historical data...
Loading historical data...
Loading historical data...
Loading historical data...
Loading historical data...
Loading historical data...
Other satellites on launch #20 in the year 2006 (2006-05-27 UTC)

ARIANE 5 R/B Visibility forecast

Observer location: undefined°, undefined

Span
Click to sort rows by Start time (UTC) header in descending order
Start Az.
Max El. time (UTC)
Max El. Az.
Max El.
End time (UTC)
End Az.
171 mins2025-02-05 20:10:23.476Z213.237° SW2025-02-05 20:33:23.476Z157.928° S27.885°2025-02-05 23:01:23.476Z116.219° SE
215 mins2025-02-06 02:10:23.476Z247.578° W2025-02-06 04:21:23.476Z214.446° SW25.665°2025-02-06 05:45:23.476Z160.085° S
|